Regional Weather Roundup
Issued by NWS

Home | Current Version | Previous Version | Graphics & Text | Print | Product List | Glossary Off
Versions: 1 2 3 4 5 6 7 8 9 10 11 12 13 14 15 16 17 18 19 20 21 22 23 24 25 26 27 28 29 30 31 32 33 34 35 36 37 38 39 40 41 42 43 44 45 46 47 48 49 50

796
ASUS43 KTOP 030159
RWRKS

WEATHER ROUNDUP FOR KANSAS
NATIONAL WEATHER SERVICE GOODLAND KS
800 PM CST FRI DEC 02 2016

NOTE:  "FAIR" INDICATES FEW OR NO CLOUDS BELOW 12,000 FEET WITH NO
SIGNIFICANT WEATHER AND/OR OBSTRUCTIONS TO VISIBILITY.

KSZ001>006-013>018-027>032-041>047-030300-
NORTHWEST KANSAS

CITY           SKY/WX    TMP DP  RH WIND       PRES   REMARKS
GOODLAND       CLOUDY    32  18  56 NE5       30.22F
HAYS           CLEAR     30  23  75 CALM      30.28R
HILL CITY      CLEAR     26  19  74 N3        30.27R
RUSSELL        CLEAR     31  22  69 NE6       30.26R
$$

KSZ061>065-074>080-084>089-030300-
SOUTHWEST KANSAS

CITY           SKY/WX    TMP DP  RH WIND       PRES   REMARKS
DODGE CITY     CLOUDY    37  16  42 N9        30.23R
ELKHART          N/A     40  12  32 NE3         N/A
GARDEN CITY    CLOUDY    38  14  37 NE8       30.23R
GREAT BEND     CLOUDY    33  22  63 N7        30.27R
LIBERAL        CLOUDY    45  12  26 E8        30.24R
$$

KSZ066>073-081>083-090>101-030300-
SOUTHEAST KANSAS

CITY           SKY/WX    TMP DP  RH WIND       PRES   REMARKS
CHANUTE        PTCLDY    45  27  49 NE8       30.27R
COFFEYVILLE    PTCLDY    47  28  47 NE10      30.24R
HUTCHINSON     CLOUDY    38  25  59 NE7       30.26R
MEDICINE LODGE   N/A     44  23  43 NE12      30.23R
NEWTON         CLOUDY    36  21  54 E7        30.26R
PARSONS        PTCLDY    46  27  47 NE7       30.26R
WICHITA INTL   MOCLDY    45  23  42 NE9       30.24R
WICHITA JABRA  PTCLDY    39  24  55 NE7       30.26R
WINFIELD       CLOUDY    47  22  37 NE9       30.24R
$$

KSZ007>012-019>026-033>040-048>060-102>105-030300-
NORTHEAST KANSAS

CITY           SKY/WX    TMP DP  RH WIND       PRES   REMARKS
CONCORDIA      CLEAR     32  25  75 NE3       30.29S
EMPORIA        CLEAR     37  25  61 NE9       30.27F
LAWRENCE       CLEAR     31  25  78 CALM      30.31S HAZE
MANHATTAN      CLEAR     35  27  72 NE3       30.31R
OLATHE IND     CLEAR     35  26  69 NE7       30.31S
OLATHE EXE     CLEAR     38  26  62 NE5       30.31S
SALINA         CLEAR     34  22  61 N3        30.29S
TOPEKA BILLARD CLEAR     35  26  69 CALM      30.32R
TOPEKA FORBES  CLEAR     39  26  59 NE6       30.31R
$$




USA.gov is the U.S. government's official web portal to all federal, state and local government web resources and services.